Location: Bittkow
(50.3000°N, 19.0000°E)
Time: 22:33:39
(UTC+00:00)

IRIDIUM 114 - Pass Details

Date: 19 September 2020
Orbit: 776 x 779 km, 86.4° (Epoch: 30 October)

Event Time Altitude Azimuth Distance (km) Brightness Sun altitude
Rises 03:12:34 0° 352° (N) 3,276 7.7 -12.4°
Reaches altitude 10° 03:14:58 10° 348° (NNW) 2,343 6.9 -12.0°
Maximum altitude 03:20:03 53° 272° (W) 954 4.5 -11.2°
Drops below altitude 10° 03:25:05 10° 197° (SSW) 2,323 6.5 -10.4°
Sets 03:27:28 0° 193° (SSW) 3,246 7.3 -10.1°
